Regional Weather Roundup
Issued by NWS Northern Indiana

Home | Current Version | Previous Version | Text Only | Print | Product List | Glossary Off
Versions: 1 2 3 4 5 6 7 8 9 10 11 12 13 14 15 16 17 18 19 20 21 22 23 24 25 26 27 28 29 30 31 32 33 34 35 36 37 38 39 40 41 42 43 44 45 46 47 48 49 50

000
ASUS43 KIWX 201611
RWRIWX

KIWX WEATHER ROUNDUP
NATIONAL WEATHER SERVICE NORTHERN INDIANA
1200 PM EDT WED SEP 20 2017

NOTE: "FAIR" INDICATES FEW OR NO CLOUDS BELOW 12,000 FEET WITH NO
SIGNIFICANT WEATHER AND/OR OBSTRUCTIONS TO VISIBILITY.

* THESE STATIONS ARE NOT UNDER NWS QUALITY CONTROL. THEY ALSO MAY NOT
  REPORT WEATHER SUCH AS PRECIPITATION OR FOG.

INZ001>027-201700-
NORTHERN INDIANA

CITY           SKY/WX    TMP DP  RH WIND       PRES   REMARKS
GARY*          SUNNY     81  68  65 S14       29.93S
VALPARAISO     SUNNY     81  70  69 SE8       29.96S
MICHIGAN CITY* SUNNY     79  68  69 SE5       29.95F
LAPORTE*       SUNNY     77  69  76 S6        29.96F
KNOX*          SUNNY     77  70  78 S7        29.96F
SOUTH BEND     SUNNY     74  69  85 SE10      29.98F
ELKHART*       MOSUNNY   73  68  83 S7        29.99S
GOSHEN         CLOUDY    73  67  81 SE6       30.00S HAZE
MONTICELLO*    SUNNY     80  71  74 S7        29.96F
LOGANSPORT*    SUNNY     81  70  69 S8        29.99S
WARSAW*        MOSUNNY   72  70  94 S5        30.01S FOG
AUBURN*        CLOUDY    68  68 100 CALM      30.03S FOG
FORT WAYNE     MOSUNNY   78  69  73 CALM      30.02S
HUNTINGTON*    SUNNY     79  70  74 S3        30.00F
PERU/GRISSOM   SUNNY     81  72  74 S8        29.99S

$$
INZ028>050-201700-
CENTRAL INDIANA

CITY           SKY/WX    TMP DP  RH WIND       PRES   REMARKS
LAFAYETTE      SUNNY     82  71  69 SW6       29.96F
KOKOMO*        SUNNY     80  72  76 S9        30.01S
MUNCIE*        SUNNY     81  69  67 SW6       30.02F
INDIANAPOLIS   MOSUNNY   79  71  76 S8        30.01S

$$
MIZ043>046-050>051-056>058-064>065-071>073-077>080-201700-
SOUTHWEST LOWER MICHIGAN

CITY           SKY/WX    TMP DP  RH WIND       PRES   REMARKS
BATTLE CREEK   SUNNY     75  66  73 S7        30.01S
BENTON HARBOR  SUNNY     78  67  68 SE10      29.95F
COLDWATER*     MOSUNNY   76  68  75 S3        30.01S
HILLSDALE*     CLOUDY    75  64  69 S3        30.02R
HOLLAND        SUNNY     79  64  60 S9        29.96F
GRAND RAPIDS   MOSUNNY   77  64  64 SE8       29.98S
KALAMAZOO      MOSUNNY   74  65  73 VRB6      29.99F
STURGIS*       SUNNY     76  67  74 S8        29.99S
THREE RIVERS*  FAIR      76  68  75 S6        30.00F

$$
OHZ001>008-015>018-024>025-201700-
NORTHWEST OHIO

CITY           SKY/WX    TMP DP  RH WIND       PRES   REMARKS
WAUSEON*       CLOUDY    72  72 100 S5        30.02S
DEFIANCE       CLOUDY    72  67  84 SW3       30.03R
FINDLAY        PTSUNNY   79  68  69 SW6       30.01F
TOLEDO EXPRESS CLOUDY    72  69  90 CALM      30.01S
TOLEDO METCALF PTSUNNY   77  68  73 VRB3      30.02S
LIMA           MOSUNNY   77  70  79 VRB5      30.03F

$$
AND FOR LAKE MICHIGAN COASTAL AND OPEN LAKE BUOY OBSERVATIONS

STATION/POSITION TEMP    WIND        PRES    VSBY  WAVE
                 AIR SEA DIR/SP/G                  HT/PER
                 (F)     (DEG/KT/KT) (MB)    (MI)  (FT/S)
CALUMET HARBOR    80     170/  8/ 10 1012.5S
MICHIGAN CITY     76     130/ 11/ 13   N/A
BURNS HARBOR      79     170/  7/ 14 1013.9F
SAINT JOSEPH      78     190/  2/  8 1014.9
SOUTH LAKE BUOY   67 68  100/ 16/ 17 1013.4F         2/ 4
4 MI NW BRIDGMAN  73 69  160/ 10/ 14 1013.9          1
MICHIGAN CITY     74 69  160/ 10/ 12   N/A           1

$$
&&




USA.gov is the U.S. government's official web portal to all federal, state and local government web resources and services.